Regional Weather Roundup
Issued by NWS

Home | Current Version | Previous Version | Text Only | Print | Product List | Glossary On
Versions: 1 2 3 4 5 6 7 8 9 10 11 12 13 14 15 16 17 18 19 20 21 22 23 24 25 26 27 28 29 30 31 32 33 34 35 36 37 38 39 40 41 42 43 44 45 46 47 48 49 50
000
ASHW40 PHFO 220432
RWRHI

WEATHER ROUNDUP FOR HAWAII
NATIONAL WEATHER SERVICE HONOLULU HI
600 PM HST TUE NOV 21 2017

THIS IS AN AUTOMATED REPORT THAT HAS NOT BEEN QUALITY CONTROLLED.

NOTE..."FAIR" INDICATES FEW OR NO CLOUDS BELOW 12,000 FEET WITH NO
SIGNIFICANT WEATHER AND/OR OBSTRUCTIONS TO VISIBILITY.

* - THESE SITES REPORT LIMITED FIELDS
# - BUOY DATA PROVIDED BY PACIFIC ISLANDS OCEAN OBSERVING SYSTEM.

HIZ001>004-220500-
KAUAI-NIIHAU-

CITY           SKY/WX    TMP DP  RH WIND       PRES   REMARKS
LIHUE APT      CLOUDY    67  65  93 NW8       29.97R
PORT ALLEN*      N/A     72 N/A N/A NE5         N/A
POIPU*           N/A     72 N/A N/A NE3G9       N/A
PRINCEVILLE*     N/A     68 N/A N/A E5G16       N/A
KOKOLE POINT*  NOT AVBL
MOLOAA DAIRY*    N/A     66  64  94 SW1G8       N/A
WAIMEA HTS*    NOT AVBL
PUU OPAE*      NOT AVBL
PUU LUA*       NOT AVBL
MAKAHA RIDGE*    N/A     61  61 100 NE5G15      N/A
$$

HIZ005>011-220500-
OAHU-

CITY           SKY/WX    TMP DP  RH WIND       PRES   REMARKS
HONOLULU       PTCLDY    76  58  53 N10       29.94R
KALAELOA       PTCLDY    73  59  61 CALM      29.95R
KANEOHE MCB    PTCLDY    74  62  66 N9        29.92R
WHEELER FIELD  FAIR      69  61  75 N6        29.98R
BELLOWS*         N/A    N/A N/A N/A N9          N/A
KAHUKU*          N/A    N/A N/A N/A NE2         N/A
WHEELER*       NOT AVBL
WAIANAE HARBOR NOT AVBL
DILLINGHAM*    NOT AVBL
KAHUKU TRN*      N/A     75  64  69 SW3G9       N/A
KAWAILOA*        N/A     66  59  77 NE6G12      N/A
KII*             N/A    N/A N/A N/A NE8         N/A
MAKUA RANGE*     N/A     79  63  57 W8G16       N/A
OAHU FOREST NW NOT AVBL
SCHOFIELD BRK*   N/A     73  66  78 MISG        N/A
SCHOFIELD S*   NOT AVBL
WAIANAE VLY*   NOT AVBL
KUAOKALA*      NOT AVBL
HONOULIUULI*   NOT AVBL
MOKUOLOE IS*   NOT AVBL
PALEHUA*       NOT AVBL
WAIAWA PHB*    NOT AVBL
$$

HIZ012>013-220500-
MOLOKAI-

CITY           SKY/WX    TMP DP  RH WIND       PRES   REMARKS
MOLOKAI AIRPT  MOCLDY    72  60  66 N12       29.94R
KALAUPAPA      NOT AVBL
MAKAPULAPAI*     N/A     72  61  68 NE8         N/A
MOLOKAI 1*     NOT AVBL
PUU ALII*        N/A     55  55  99 NE1         N/A
$$

HIZ016-220500-
KAHOOLAWE-

CITY           SKY/WX    TMP DP  RH WIND       PRES   REMARKS
KAHOOLAWE*     NOT AVBL
HAKIOAWA*        N/A     69  59  69 MISG      30.35R
HONOKANAIA*    NOT AVBL
KANELOA*         N/A     73  59  60 N13G24    29.96S
KEALIALALO*    NOT AVBL
LUA MAKIKA*    NOT AVBL
$$

HIZ014>015-220500-
LANAI-

CITY           SKY/WX    TMP DP  RH WIND       PRES   REMARKS
LANAI CITY     FAIR      67  58  72 NE16      29.97R
LANAI 1*       NOT AVBL
$$

HIZ017>028-220500-
MAUI-

CITY           SKY/WX    TMP DP  RH WIND       PRES   REMARKS
KAHULUI        PTCLDY    73  59  61 N8        29.93R
KAPALUA-W MAUI PTCLDY    72  57  60 NE12      29.94
HANA AIRPORT   CLEAR    N/A N/A N/A SW3       29.96R
HANA*            N/A     70 N/A N/A W5          N/A
HALEAKALA SUMM   N/A     39  -4  16 NW13        N/A
MAALAEA BAY*     N/A     72 N/A N/A N8          N/A
HALEAKALA*     NOT AVBL
KAUPO GAP*     NOT AVBL
KULA 1*          N/A     48  34  57 E5          N/A
$$

HIZ023>026-220500-
BIG ISLAND OF HAWAII COAST AND LOWER SLOPES-

CITY           SKY/WX    TMP DP  RH WIND       PRES   REMARKS
KAILUA KONA    PTCLDY    77  59  53 N13       29.89R
HILO           CLOUDY    72  65  78 NE8       29.93R
HONOKAA*         N/A     63 N/A N/A VRB1        N/A
KAWAIHAE MWT*    N/A     81 N/A N/A N8G15       N/A
KAWAIHAE*        N/A     79 N/A N/A NE7       29.89R
SOUTH POINT*     N/A     70 N/A N/A NE3         N/A
UPOLU AIRPORT* NOT AVBL
KAMUELA*       PTCLDY    59  55  88 E10       30.02R
HAKALAU*         N/A     48  48 100 CALM        N/A
KALOKO-HONOKO*   N/A     75  59  57 NE6G15    29.89R
PALI 2*          N/A     63  55  77 S13G23      N/A
KEALAKOMO*       N/A     75  57  53 N18G28      N/A
KAUPULEHU*     NOT AVBL
KAPAPALA*        N/A     67  67 100 W3          N/A
LOWER KAHUKU*    N/A    N/A N/A N/A CALM        N/A
PUHE CS*         N/A     79  55  44 SW2G9       N/A
PUHO CS*         N/A     79  64  60 S1          N/A
PTA KEAMUKU*     N/A     57  54  88 NE12G18     N/A
WAIKOLOA*      NOT AVBL
$$

HIZ027>028-220500-
BIG ISLAND OF HAWAII INTERIOR AND SUMMMITS-

CITY           SKY/WX    TMP DP  RH WIND       PRES   REMARKS
BRADSHAW FIELD MOCLDY    54  46  76 W3        30.18R
MK VISITOR CEN   N/A     43  14  31 W10         N/A
MAUNA KEA*       N/A     32 -18  10 W5          N/A  WCI  27
MAUNA LOA*       N/A     41  -6  13 MISG        N/A
MAUNA LOA 1*   NOT AVBL
PTA KIPUKA*      N/A     55  54  94 S3          N/A
PTA RANGE 17*    N/A     52  50  93 E3G9        N/A
PTA WEST*        N/A     70  63  78 NW3         N/A
NENE CABIN*      N/A     48  48 100 S3          N/A
AHUMOA*        NOT AVBL
PTA PORTABLE*  NOT AVBL
PUU MALI*      NOT AVBL
$$

HIC003-220500-
NORTHWEST ISLANDS-

CITY           SKY/WX    TMP DP  RH WIND       PRES   REMARKS
MIDWAY ISLAND  PTCLDY    73  63  68 E25       30.17F
MIDWAY NOS*      N/A     73 N/A N/A MISG      30.16S
FRENCH FRIGATE NOT AVBL
$$

PHZ110>124-180-220500-
BUOY REPORTS

STATION/POSITION TIME  TEMP    WIND        PRES    WAVE   SWELL
                       AIR SEA DIR/SP/G            HT/PER HT/DIR
                 (UTC) (F)     (DEG/KT/KT) (MB)    (FT/S) (FT/D)
BUOY 51001       0410   73 77   40/ 19/ 25 1017.4
BUOY 51101       0350   73 77   40/ 21/ 25 1017.3R  12/11  10/ 30
BUOY 51100       NOT AVBL
BUOY 51002       0410   78 80   30/ 14/ 16 1011.9
BUOY 51003       0350   76 81   40/ 16/ 19 1012.8R   8/11   7/360
BUOY 51004       0410   77 80   30/ 12/ 16 1012.7
WAIMEA BAY#      0402      76                N/A     9/12   7/ 10
MOKAPU POINT#    0404      79                N/A    10/11   7/ 10
LANAI#           NOT AVBL
BARBERS PT 2#    NOT AVBL
PAUWELA#         NOT AVBL
HILO#            0357      79                N/A    11/12   8
KANEOHE BAY#     NOT AVBL
KANEOHE BAY 2#   NOT AVBL
HANALEI#         0352      79                N/A     9/11   5/ 20
KAHULUI HARBOR   0400   73 78  300/  9/  9 1013.6
HONOLULU HARBOR  0400   74 79   10/  4/  8 1014.6
PEARL HARBOR#    0400      79                N/A     2/ 8   2/160
KILO NALU        NOT AVBL
HILO HARBOR      0400   73 78   10/ 10/ 13 1013.2
MOKUOLOE         0336   73 77   10/  7/ 10 1013.7R
NAWILIWILI       0400   71     310/  4/  5 1014.6
WHOTS BUOY       NOT AVBL
BUOY 51028       NOT AVBL
$$

......................KEY........................................
  SKY/WX - SKY CONDITIONS/PRESENT WEATHER
  TMP    - TEMPERATURE IN FAHRENHEIT
  DWPT   - DEWPOINT IN FAHRENHEIT
  RH     - RELATIVE HUMIDITY IN PERCENT
  WIND   - DIRECTION AND SPEED /MPH FOR ISLANDS...KTS FOR BUOYS/
  PRES   - MEAN SEA LEVEL PRESSURE IN INCHES OF HG
  VSB    - VISIBILITY IN MILES
  HX     - HEAT INDEX
  WCI    - WIND CHILL INDEX
  VRB    - VARIABLE WIND DIRECTION
  N/A    - NOT AVAILABLE



USA.gov is the U.S. government's official web portal to all federal, state and local government web resources and services.